Location: Unspecified
(48.2082°N, 0.0000°E)
Time: 18:23:05
(UTC+00:00)

Altair - Pass Details

Date: 26 June 2019
Orbit: 1501 x 1683 km, 47.2° (Epoch: 22 August)

Event Time Altitude Azimuth Distance (km) Brightness Sun altitude
Rises 18:48:46 0° 230° (SW) 4,669 10.4 10.0°
Reaches altitude 10° 18:51:49 10° 226° (SW) 3,707 9.9 9.6°
Maximum altitude 19:00:55 58° 151° (SSE) 1,802 7.8 8.2°
Drops below altitude 10° 19:10:25 10° 76° (ENE) 3,856 9.2 6.8°
Sets 19:13:39 0° 73° (ENE) 4,867 9.7 6.3°
